Estación municipal de St. Hilari Sacalm (La Selva, Guilleries)

Consulta los datos en tiempo real de la estación municipal de St. Hilari Sacalm





Hora UTC 09:20
Temperatura 15.7 ºC
Humedad 50.5 %
Presión 1014.9 hPa
Pluja 0.0 mm
Velocidad viento 7.1 km/h
Dirección viento SSE
Radiación solar 367.6 W/m²

Webcam

Datos diarios 2026-05-08



Hora UTC (invierno +1h; verano +2h)
Temperatura (ºC) Humedad (%) Presión (hPa) Velocidad viento (km/h) Precipitación (mm) Radiación solar (W/m²)
Hora UTC Aire Humedad Presión Vel. Dir. Vel. Max Dir. Intent. máx 5 min. Rad. Sol.
00:05 9.3 90.6 1013.5 7.1 WNW 7.1 W 0.0 0.1
00:10 9.4 88.8 1013.5 3.3 WNW 14.2 WNW 0.0 0.1
00:15 9.4 87.5 1013.4 6.0 NW 16.9 WNW 0.0 0.1
00:20 9.4 86.9 1013.4 3.9 WNW 14.2 NW 0.0 0.1
00:25 9.4 86.4 1013.3 1.8 WNW 14.2 NW 0.0 0.1
00:30 9.3 86.5 1013.3 2.4 WNW 11.5 WNW 0.0 0.1
00:35 9.2 86.4 1013.3 1.0 WNW 6.1 WNW 0.0 0.1
00:40 9.2 86.3 1013.3 0.5 W 6.1 W 0.0 0.1
00:45 9.1 86.4 1013.3 0.0 NNE 0.0 W 0.0 0.1
00:50 9.1 86.8 1013.3 0.0 NNE 0.0 WSW 0.0 0.1
00:55 9.1 87.5 1013.3 0.0 NNE 0.0 SW 0.0 0.1
01:00 9.1 88.0 1013.2 0.3 W 8.8 W 0.0 0.1
01:05 9.1 88.4 1013.2 0.6 WNW 6.1 WNW 0.0 0.1
01:10 9.3 88.8 1013.2 0.3 WNW 6.1 NW 0.0 0.1
01:15 9.4 88.8 1013.1 0.0 NNE 0.0 WNW 0.0 0.1
01:20 9.4 88.7 1013.1 0.0 NNE 0.0 NW 0.0 0.1
01:25 9.4 89.0 1013.0 0.0 NNE 0.0 W 0.0 0.1
01:30 9.4 89.1 1013.0 0.0 NNE 0.0 WNW 0.0 0.1
01:35 9.4 89.2 1013.0 0.0 NW 3.4 NW 0.0 0.1
01:40 9.5 89.5 1013.0 0.0 NW 3.4 NW 0.0 0.1
01:45 9.4 89.5 1012.9 0.2 NNW 8.8 NW 0.0 0.1
01:50 9.3 89.6 1012.9 0.2 NNW 8.8 NW 0.0 0.1
01:55 9.2 89.7 1012.9 0.0 NNE 0.0 NW 0.0 0.1
02:00 9.1 90.0 1012.9 0.1 NNW 6.1 NW 0.0 0.1
02:05 9.1 90.2 1012.8 2.1 WNW 14.2 W 0.0 0.1
02:10 9.2 90.4 1012.8 0.3 WNW 8.8 W 0.0 0.1
02:15 9.3 90.1 1012.8 2.2 WNW 14.2 W 0.0 0.1
02:20 9.4 89.6 1012.8 1.2 WNW 11.5 WNW 0.0 0.1
02:25 9.5 89.0 1012.7 2.2 WNW 11.5 W 0.0 0.1
02:30 9.6 88.4 1012.7 3.2 WNW 14.2 NW 0.0 0.1
02:35 9.5 88.5 1012.7 1.3 NW 11.5 WNW 0.0 0.1
02:40 9.4 88.8 1012.6 3.3 NW 14.2 NW 0.0 0.1
02:45 9.3 89.2 1012.6 0.8 W 8.8 WNW 0.0 0.1
02:50 9.3 89.3 1012.5 1.4 W 11.5 NW 0.0 0.1
02:55 9.3 89.4 1012.6 2.6 WNW 11.5 W 0.0 0.1
03:00 9.4 88.8 1012.6 3.8 WNW 16.9 W 0.0 0.1
03:05 9.5 87.9 1012.5 8.6 NW 16.9 W 0.0 0.1
03:10 9.5 86.8 1012.5 9.6 NW 16.9 NNW 0.0 0.1
03:15 9.5 86.1 1012.4 8.0 NW 19.6 NW 0.0 0.1
03:20 9.4 86.1 1012.5 3.8 WNW 14.2 SW 0.0 0.1
03:25 9.3 86.5 1012.5 6.5 WNW 16.9 WNW 0.0 0.1
03:30 9.2 86.2 1012.4 0.8 NW 11.5 NNW 0.0 0.1
03:35 9.1 86.6 1012.4 4.3 NW 16.9 WNW 0.0 0.1
03:40 9.2 87.5 1012.4 6.4 NW 16.9 NW 0.0 0.1
03:45 9.1 87.3 1012.4 2.3 WNW 11.5 WNW 0.0 0.1
03:50 9.0 87.2 1012.4 0.1 WSW 8.8 WSW 0.0 0.1
03:55 8.8 87.3 1012.5 0.2 WSW 6.1 WSW 0.0 0.1
04:00 8.7 87.3 1012.5 0.1 W 6.1 W 0.0 0.1
04:05 8.5 87.4 1012.5 0.0 WSW 3.4 WSW 0.0 0.1
04:10 8.3 87.4 1012.5 0.0 NNE 0.0 W 0.0 0.1
04:15 8.3 86.1 1012.5 0.0 NNE 0.0 WNW 0.0 0.1
04:20 8.1 85.1 1012.5 0.0 NNE 0.0 WNW 0.0 0.2
04:25 7.9 85.4 1012.6 0.0 NNE 0.0 WSW 0.0 0.4
04:30 7.6 86.6 1012.6 0.0 NNE 0.0 SW 0.0 0.9
04:35 7.4 87.9 1012.6 0.0 NNE 0.0 WSW 0.0 1.7
04:40 7.2 88.5 1012.6 0.0 SW 3.4 SW 0.0 2.7
04:45 7.1 89.3 1012.6 0.0 W 3.4 W 0.0 3.9
04:50 7.0 89.6 1012.7 0.0 NNE 0.0 WSW 0.0 5.3
04:55 7.0 89.9 1012.7 0.0 NNE 0.0 W 0.0 6.8
05:00 6.9 90.0 1012.7 0.0 WNW 3.4 WNW 0.0 9.1
05:05 6.9 90.3 1012.8 0.0 W 3.4 W 0.0 12.1
05:10 6.9 90.3 1012.8 0.0 W 3.4 W 0.0 23.5
05:15 7.0 90.3 1012.8 0.0 WSW 3.4 WSW 0.0 39.9
05:20 7.4 89.9 1012.9 0.0 NNE 0.0 W 0.0 86.8
05:25 8.2 87.7 1012.9 0.0 NNE 0.0 WNW 0.0 102.4
05:30 9.1 84.6 1013.0 0.0 NNE 0.0 SW 0.0 85.0
05:35 9.8 80.6 1013.0 0.0 NNE 0.0 SW 0.0 97.0
05:40 10.2 78.6 1013.1 0.0 NNE 0.0 NNW 0.0 137.2
05:45 10.4 78.9 1013.2 1.2 NW 8.8 NW 0.0 160.1
05:50 10.7 77.5 1013.2 1.6 NW 8.8 NW 0.0 80.2
05:55 10.8 77.2 1013.3 0.1 WNW 3.4 NW 0.0 60.4
06:00 10.9 77.3 1013.4 0.0 NNE 0.0 SW 0.0 87.6
06:05 11.0 77.2 1013.5 0.0 NNE 0.0 S 0.0 106.3
06:10 11.1 76.2 1013.5 0.0 NNE 0.0 SSW 0.0 85.8
06:15 11.2 76.3 1013.6 0.0 NNE 0.0 SSW 0.0 96.7
06:20 11.3 76.2 1013.6 0.0 NNE 0.0 SW 0.0 139.1
06:25 11.6 75.8 1013.5 0.0 NNE 0.0 SW 0.0 143.9
06:30 11.9 74.1 1013.6 0.0 NNE 0.0 SW 0.0 222.1
06:35 12.4 72.3 1013.7 0.0 NNE 0.0 SW 0.0 210.7
06:40 13.2 72.1 1013.7 0.0 NNE 0.0 SSW 0.0 264.8
06:45 14.0 70.0 1013.7 0.0 NNE 0.0 SSW 0.0 339.6
06:50 14.8 61.9 1013.7 0.0 NNE 0.0 SSW 0.0 252.0
06:55 15.3 59.2 1013.8 0.0 NNE 0.0 SSW 0.0 359.2
07:00 15.5 56.8 1013.8 0.0 NNE 0.0 NE 0.0 422.7
07:05 15.3 55.1 1013.9 0.3 ENE 6.1 ENE 0.0 402.6
07:10 15.1 55.0 1013.9 1.7 ENE 8.8 E 0.0 425.7
07:15 15.2 53.2 1013.9 1.0 ENE 8.8 NE 0.0 441.8
07:20 15.3 51.5 1013.9 2.2 NNE 11.5 NNE 0.0 455.7
07:25 15.5 52.3 1013.9 0.6 NNE 8.8 N 0.0 480.6
07:30 15.7 51.8 1013.9 1.2 NE 8.8 NNE 0.0 465.9
07:35 15.7 51.3 1013.9 1.6 NE 8.8 ESE 0.0 505.9
07:40 15.5 51.6 1014.0 4.6 NE 11.5 NNE 0.0 496.2
07:45 15.3 53.4 1014.0 3.9 NE 11.5 NNE 0.0 508.6
07:50 15.3 52.9 1014.1 6.6 ENE 11.5 ENE 0.0 466.3
07:55 15.3 53.6 1014.2 5.5 ENE 11.5 ENE 0.0 512.9
08:00 15.2 54.0 1014.2 6.4 ENE 14.2 ENE 0.0 496.6
08:05 15.2 55.2 1014.2 5.2 NE 14.2 NE 0.0 584.3
08:10 15.5 54.6 1014.2 3.6 ENE 11.5 NNE 0.0 523.4
08:15 15.5 52.1 1014.3 4.9 SE 11.5 ESE 0.0 505.0
08:20 15.1 50.8 1014.3 6.6 SSE 14.2 SSE 0.0 506.7
08:25 15.0 52.3 1014.3 7.9 SE 14.2 SE 0.0 580.2
08:30 15.0 53.1 1014.3 5.5 SSE 11.5 SSE 0.0 611.2
08:35 15.3 49.5 1014.4 3.7 SSE 11.5 SE 0.0 567.2
08:40 15.4 48.8 1014.4 5.9 SE 11.5 SSE 0.0 549.5
08:45 15.3 50.8 1014.5 6.9 SE 16.9 ESE 0.0 568.0
08:50 15.5 50.7 1014.6 4.4 SSE 11.5 SSE 0.0 621.1
08:55 15.4 49.8 1014.6 6.0 SSE 11.5 SSE 0.0 607.7
09:00 15.9 50.9 1014.7 5.2 S 11.5 S 0.0 662.2
09:05 16.3 49.7 1014.7 6.8 S 14.2 SSW 0.0 562.5
09:10 16.5 47.7 1014.7 5.6 S 14.2 SSW 0.0 462.0
09:15 16.0 47.8 1014.8 6.5 SSE 14.2 SSE 0.0 375.5
09:20 15.7 50.5 1014.9 7.1 SSE 14.2 S 0.0 367.6
Máxima 16.5 90.6 1014.9 9.6 NW 19.6 NW 0.0 662.2
Mínima 6.9 47.7 1012.4
Total 0.0